{"data":{"norad_id":62011,"epoch":"2026-09-21T20:45:08.364960Z","epoch_age_seconds":67549,"freshness":"FRESH","line1":"1 62011U 24213D   26264.86468015  .00110196  00000+0  89970-3 0  9993","line2":"2 62011  53.1584 154.4162 0001275  31.8250 328.2845 15.69781972105727","mean_motion":15.69781972,"eccentricity":0.0001275,"inclination_deg":53.1584,"raan_deg":154.4162,"arg_perigee_deg":31.825,"mean_anomaly_deg":328.2845,"bstar":0.0008997,"rev_number":10572,"period_min":91.732484235715,"perigee_km":358.66175060446,"apogee_km":360.37985334396,"semimajor_km":6737.6578019742,"source":"CELESTRAK","updated_at":"2026-09-22T09:00:49.482666Z"}}